This is the latest recevied weather packets stored in our database for station/object KC3VCX. If no packets are shown the sender has not sent any weather packets the latest 10 day(s).
| Time | Temp. | Humidity | Pressure | Rain* | Wind** | Luminosity | Snow |
|---|---|---|---|---|---|---|---|
| 1777745231 | 6.11° C | 77% | 1017.4 hPa | 0 mm | - | 223 W/m² | - |
| 1777744928 | 5.56° C | 79% | 1017.4 hPa | 0 mm | - | 552 W/m² | - |
| 1777744627 | 5.56° C | 84% | 1017.4 hPa | 0 mm | - | 550 W/m² | - |
| 1777744323 | 5° C | 86% | 1017.6 hPa | 0 mm | - | 306 W/m² | - |
| 1777744020 | 5° C | 86% | 1017.3 hPa | 0 mm | - | 190 W/m² | - |
| 1777743716 | 4.44° C | 85% | 1017.6 hPa | 0 mm | - | 162 W/m² | - |
| 1777743413 | 4.44° C | 85% | 1017.3 hPa | 0 mm | - | 164 W/m² | - |
| 1777743111 | 4.44° C | 86% | 1017.3 hPa | 0 mm | - | 143 W/m² | - |
| 1777742809 | 4.44° C | 84% | 1017.4 hPa | 0 mm | - | 219 W/m² | - |
| 1777742505 | 4.44° C | 84% | 1017.3 hPa | 0 mm | - | 158 W/m² | - |
| 1777742200 | 4.44° C | 84% | 1017.4 hPa | 0 mm | - | 173 W/m² | - |
| 1777741898 | 4.44° C | 84% | 1017.4 hPa | 1.78 mm | - | 185 W/m² | - |
| 1777741595 | 4.44° C | 83% | 1017.3 hPa | 1.78 mm | - | 163 W/m² | - |
| 1777741292 | 5° C | 83% | 1017.4 hPa | 0 mm | - | 49 W/m² | - |
| 1777740988 | 5° C | 82% | 1017.4 hPa | 0 mm | - | 70 W/m² | - |
| 1777740685 | 5.56° C | 82% | 1017.3 hPa | 0 mm | - | 145 W/m² | - |
| 1777740381 | 5.56° C | 83% | 1017.4 hPa | 0 mm | - | 139 W/m² | - |
| 1777740078 | 5° C | 85% | 1017.2 hPa | 0 mm | - | 274 W/m² | - |
| 1777739774 | 5° C | 86% | 1017.1 hPa | 0 mm | - | 288 W/m² | - |
| 1777739471 | 4.44° C | 87% | 1017.4 hPa | 0 mm | - | 192 W/m² | - |
| 1777739168 | 4.44° C | 87% | 1017.3 hPa | 0 mm | - | 121 W/m² | - |
| 1777738865 | 4.44° C | 87% | 1017.6 hPa | 0 mm | - | 100 W/m² | - |
| 1777738562 | 4.44° C | 87% | 1017.3 hPa | 0 mm | - | 82 W/m² | - |
| 1777738259 | 4.44° C | 87% | 1017.2 hPa | 0 mm | - | 81 W/m² | - |
| 1777737957 | 4.44° C | 87% | 1017.4 hPa | 1.27 mm | - | 78 W/m² | - |
* Rain latest hour (hover to see other rain measurements)
** Current wind speed in m/s (hover to see current wind gust speed)